Weather History for KAEL - March, 2014

Change the Weather History Date:

Friday, March 14, 2014

  Actual Average (KMCW) Record (KMCW)
Temperature  
Mean Temperature 38 °F 32 °F  
Max Temperature 46 °F 41 °F 78 °F (2012)
Min Temperature 30 °F 23 °F -11 °F (1993)
Degree Days  
Heating Degree Days 27 33  
Month to date heating degree days 502  
Since 1 July heating degree days 6353  
Cooling Degree Days 0 0  
Month to date cooling degree days 0  
Year to date cooling degree days 0  
Moisture  
Dew Point 32 °F    
Average Humidity 77    
Maximum Humidity 87    
Minimum Humidity 53    
Precipitation  
Precipitation 0.00 in 0.07 in 0.88 in (1953)
Month to date precipitation 0.81  
Year to date precipitation 2.63  
Snow  
Snow 0.00 in 0.20 in 3.00 in (1918)
Month to date snowfall 3.1  
Since 1 July snowfall 35.6  
Snow Depth -    
Sea Level Pressure  
Sea Level Pressure 29.71 in    
Wind  
Wind Speed 11 mph (WNW)    
Max Wind Speed 21 mph    
Max Gust Speed 28 mph    
Visibility 10 miles    
Events      
T = Trace of Precipitation, MM = Missing Value Source: NWS Daily Summary

Daily Weather History Graph

Daily Weather History Graph

Search for Another Location

Airport or City:

Trip Planner

Search our weather history database for the weather conditions in past years. The results will help you decide how hot, cold, wet, or windy it might be!

Date:

Astronomy

Mar. 14, 2014 Rise Set
Actual Time 7:27 AM CDT 7:18 PM CDT
Civil Twilight 6:58 AM CDT 7:47 PM CDT
Nautical Twilight 6:25 AM CDT 8:20 PM CDT
Astronomical Twilight 5:51 AM CDT 8:54 PM CDT
Moon 5:39 PM CDT (3/14) 6:10 AM CDT (3/14)
Length of Visible Light 12h 48m
Length of Day
11h 51m
Waxing Gibbous, 96% of the Moon is Illuminated
Mar 14
Waxing Gibbous
Mar 16
Full
Mar 23
Last Quarter
Mar 30
New
Apr 7
First Quarter

Hourly Weather History & Observations

Time (CDT) Temp. Windchill Dew Point Humidity Pressure Visibility Wind Dir Wind Speed Gust Speed Precip Events Conditions
12:11 AM 46.4 °F 41.1 °F 30.2 °F 53% 29.54 in 10.0 mi SSW 11.5 mph 18.4 mph N/A   Clear
12:30 AM 46.4 °F 41.1 °F 30.2 °F 53% 29.54 in 10.0 mi SW 11.5 mph 20.7 mph N/A   Clear
12:51 AM 44.6 °F 38.4 °F 30.2 °F 57% 29.54 in 10.0 mi SW 12.7 mph 18.4 mph N/A   Clear
1:10 AM 44.6 °F 37.8 °F 30.2 °F 57% 29.54 in 10.0 mi SW 15.0 mph 19.6 mph N/A   Clear
1:31 AM 44.6 °F 39.2 °F 30.2 °F 57% 29.54 in 10.0 mi SW 10.4 mph - N/A   Clear
1:51 AM 42.8 °F 38.0 °F 30.2 °F 61% 29.54 in 10.0 mi SW 8.1 mph - N/A   Clear
2:10 AM 42.8 °F 38.0 °F 30.2 °F 61% 29.54 in 10.0 mi WSW 8.1 mph - N/A   Clear
2:31 AM 42.8 °F 37.5 °F 30.2 °F 61% 29.54 in 10.0 mi WSW 9.2 mph - N/A   Clear
2:51 AM 41.0 °F 37.1 °F 30.2 °F 65% 29.54 in 10.0 mi West 5.8 mph - N/A   Clear
3:10 AM 39.2 °F 35.0 °F 30.2 °F 70% 29.54 in 10.0 mi West 5.8 mph - N/A   Clear
3:31 AM 39.2 °F 34.2 °F 32.0 °F 75% 29.54 in 10.0 mi West 6.9 mph - N/A   Clear
3:51 AM 39.2 °F 33.6 °F 32.0 °F 75% 29.54 in 10.0 mi WNW 8.1 mph - N/A   Clear
4:10 AM 39.2 °F 34.2 °F 33.8 °F 81% 29.55 in 10.0 mi WNW 6.9 mph - N/A   Clear
4:31 AM 39.2 °F 33.0 °F 33.8 °F 81% 29.55 in 10.0 mi WNW 9.2 mph 16.1 mph N/A   Clear
4:51 AM 39.2 °F 33.6 °F 33.8 °F 81% 29.56 in 10.0 mi WNW 8.1 mph 18.4 mph N/A   Clear
5:10 AM 37.4 °F 30.3 °F 33.8 °F 87% 29.57 in 10.0 mi WNW 10.4 mph 16.1 mph N/A   Clear
5:30 AM 37.4 °F 30.8 °F 33.8 °F 87% 29.58 in 10.0 mi WNW 9.2 mph 17.3 mph N/A   Clear
5:51 AM 37.4 °F 30.3 °F 33.8 °F 87% 29.60 in 10.0 mi WNW 10.4 mph 17.3 mph N/A   Clear
6:10 AM 37.4 °F 30.8 °F 32.0 °F 81% 29.60 in 10.0 mi West 9.2 mph - N/A   Scattered Clouds
6:30 AM 37.4 °F 30.3 °F 32.0 °F 81% 29.61 in 10.0 mi WNW 10.4 mph 19.6 mph N/A   Scattered Clouds
6:50 AM 37.4 °F 30.3 °F 32.0 °F 81% 29.62 in 10.0 mi WNW 10.4 mph 19.6 mph N/A   Scattered Clouds
7:10 AM 37.4 °F 30.3 °F 30.2 °F 75% 29.62 in 10.0 mi WNW 10.4 mph 17.3 mph N/A   Overcast
7:31 AM 35.6 °F 28.0 °F 30.2 °F 81% 29.62 in 10.0 mi WNW 10.4 mph - N/A   Mostly Cloudy
7:50 AM 35.6 °F 28.6 °F 30.2 °F 81% 29.63 in 10.0 mi WNW 9.2 mph 17.3 mph N/A   Scattered Clouds
8:10 AM 35.6 °F 28.0 °F 30.2 °F 81% 29.63 in 10.0 mi WNW 10.4 mph 18.4 mph N/A   Clear
8:31 AM 37.4 °F 30.3 °F 30.2 °F 75% 29.64 in 10.0 mi WNW 10.4 mph 21.9 mph N/A   Clear
8:50 AM 37.4 °F 28.9 °F 30.2 °F 75% 29.64 in 10.0 mi WNW 13.8 mph 21.9 mph N/A   Clear
9:10 AM 37.4 °F 29.3 °F 32.0 °F 81% 29.65 in 10.0 mi WNW 12.7 mph 18.4 mph N/A   Clear
9:30 AM 37.4 °F 28.5 °F 32.0 °F 81% 29.66 in 10.0 mi WNW 15.0 mph 21.9 mph N/A   Clear
9:50 AM 37.4 °F 29.3 °F 32.0 °F 81% 29.66 in 10.0 mi WNW 12.7 mph 20.7 mph N/A   Scattered Clouds
10:11 AM 37.4 °F 29.8 °F 32.0 °F 81% 29.67 in 10.0 mi WNW 11.5 mph 23.0 mph N/A   Mostly Cloudy
10:30 AM 37.4 °F 28.5 °F 32.0 °F 81% 29.67 in 10.0 mi WNW 15.0 mph 24.2 mph N/A   Scattered Clouds
10:50 AM 39.2 °F 32.5 °F 33.8 °F 81% 29.68 in 10.0 mi WNW 10.4 mph 21.9 mph N/A   Scattered Clouds
11:11 AM 39.2 °F 30.8 °F 33.8 °F 81% 29.68 in 10.0 mi WNW 15.0 mph 23.0 mph N/A   Mostly Cloudy
11:30 AM 39.2 °F 30.5 °F 33.8 °F 81% 29.69 in 10.0 mi WNW 16.1 mph 23.0 mph N/A   Mostly Cloudy
11:50 AM 39.2 °F 31.2 °F 33.8 °F 81% 29.70 in 10.0 mi WNW 13.8 mph 26.5 mph N/A   Overcast
12:11 PM 39.2 °F 31.6 °F 33.8 °F 81% 29.71 in 10.0 mi WNW 12.7 mph 25.3 mph N/A   Overcast
12:30 PM 39.2 °F 31.6 °F 33.8 °F 81% 29.71 in 10.0 mi WNW 12.7 mph 21.9 mph N/A   Overcast
12:50 PM 39.2 °F 31.6 °F 33.8 °F 81% 29.72 in 10.0 mi WNW 12.7 mph 25.3 mph N/A   Mostly Cloudy
1:11 PM 39.2 °F 29.3 °F 33.8 °F 81% 29.73 in 10.0 mi WNW 20.7 mph 27.6 mph N/A   Overcast
1:30 PM 39.2 °F 31.6 °F 33.8 °F 81% 29.73 in 10.0 mi WNW 12.7 mph 26.5 mph N/A   Overcast
1:50 PM 39.2 °F 30.2 °F 33.8 °F 81% 29.74 in 10.0 mi WNW 17.3 mph 25.3 mph N/A   Overcast
2:11 PM 39.2 °F 31.6 °F 33.8 °F 81% 29.74 in 10.0 mi WNW 12.7 mph 21.9 mph N/A   Overcast
2:30 PM 39.2 °F 31.6 °F 33.8 °F 81% 29.74 in 10.0 mi WNW 12.7 mph 25.3 mph N/A   Overcast
2:50 PM 39.2 °F 32.0 °F 33.8 °F 81% 29.75 in 10.0 mi WNW 11.5 mph 19.6 mph N/A   Overcast
3:11 PM 39.2 °F 30.8 °F 33.8 °F 81% 29.76 in 10.0 mi WNW 15.0 mph 23.0 mph N/A   Overcast
3:30 PM 39.2 °F 32.0 °F 33.8 °F 81% 29.76 in 10.0 mi WNW 11.5 mph 20.7 mph N/A   Overcast
3:51 PM 39.2 °F 31.6 °F 33.8 °F 81% 29.77 in 10.0 mi WNW 12.7 mph 19.6 mph N/A   Overcast
4:10 PM 41.0 °F 33.9 °F 35.6 °F 81% 29.77 in 10.0 mi WNW 12.7 mph 23.0 mph N/A   Mostly Cloudy
4:30 PM 41.0 °F 33.5 °F 33.8 °F 76% 29.77 in 10.0 mi WNW 13.8 mph 19.6 mph N/A   Clear
4:51 PM 41.0 °F 33.9 °F 33.8 °F 76% 29.78 in 10.0 mi WNW 12.7 mph 20.7 mph N/A   Clear
5:10 PM 41.0 °F 35.8 °F 33.8 °F 76% 29.79 in 10.0 mi WNW 8.1 mph 18.4 mph N/A   Mostly Cloudy
5:30 PM 41.0 °F 35.2 °F 33.8 °F 76% 29.79 in 10.0 mi West 9.2 mph 18.4 mph N/A   Overcast
5:51 PM 42.8 °F 37.0 °F 33.8 °F 70% 29.80 in 10.0 mi West 10.4 mph - N/A   Overcast
6:10 PM 41.0 °F 34.7 °F 33.8 °F 76% 29.80 in 10.0 mi WNW 10.4 mph 16.1 mph N/A   Mostly Cloudy
6:31 PM 39.2 °F 32.5 °F 33.8 °F 81% 29.81 in 10.0 mi WNW 10.4 mph 16.1 mph N/A   Mostly Cloudy
6:51 PM 39.2 °F 32.5 °F 33.8 °F 81% 29.83 in 10.0 mi WNW 10.4 mph - N/A   Mostly Cloudy
7:10 PM 39.2 °F 33.0 °F 33.8 °F 81% 29.84 in 10.0 mi NW 9.2 mph 16.1 mph N/A   Scattered Clouds
7:31 PM 37.4 °F 30.3 °F 32.0 °F 81% 29.86 in 10.0 mi WNW 10.4 mph 20.7 mph N/A   Clear
7:51 PM 37.4 °F 29.3 °F 30.2 °F 75% 29.87 in 10.0 mi WNW 12.7 mph 17.3 mph N/A   Clear
8:10 PM 35.6 °F 28.6 °F 30.2 °F 81% 29.88 in 10.0 mi NW 9.2 mph 16.1 mph N/A   Clear
8:31 PM 35.6 °F 26.2 °F 28.4 °F 75% 29.89 in 10.0 mi WNW 15.0 mph 20.7 mph N/A   Clear
8:50 PM 35.6 °F 29.2 °F 28.4 °F 75% 29.90 in 10.0 mi NW 8.1 mph 18.4 mph N/A   Clear
9:10 PM 33.8 °F 26.4 °F 28.4 °F 81% 29.91 in 10.0 mi NW 9.2 mph 18.4 mph N/A   Clear
9:31 PM 33.8 °F 25.8 °F 28.4 °F 81% 29.91 in 10.0 mi NW 10.4 mph - N/A   Clear
9:50 PM 33.8 °F 27.0 °F 26.6 °F 75% 29.91 in 10.0 mi NW 8.1 mph - N/A   Clear
10:10 PM 33.8 °F 27.0 °F 26.6 °F 75% 29.92 in 10.0 mi NW 8.1 mph - N/A   Clear
10:31 PM 33.8 °F 26.4 °F 26.6 °F 75% 29.93 in 10.0 mi NW 9.2 mph - N/A   Clear
10:50 PM 32.0 °F 25.6 °F 26.6 °F 80% 29.94 in 10.0 mi WNW 6.9 mph - N/A   Clear
11:11 PM 30.2 °F 23.4 °F 26.6 °F 86% 29.94 in 10.0 mi WNW 6.9 mph - N/A   Clear
11:30 PM 30.2 °F 23.4 °F 26.6 °F 86% 29.95 in 10.0 mi WNW 6.9 mph - N/A   Clear
11:51 PM 30.2 °F 23.4 °F 26.6 °F 86% 29.95 in 10.0 mi WNW 6.9 mph - N/A   Clear